Regional Weather Roundup
Issued by NWS

Home | Current Version | Previous Version | Text Only | Print | Product List | Glossary Off
Versions: 1 2 3 4 5 6 7 8 9 10 11 12 13 14 15 16 17 18 19 20 21 22 23 24 25 26 27

000
ASUS45 KPSR 262010
RWRAZ

ARIZONA HOURLY REGIONAL WEATHER ROUNDUP
NATIONAL WEATHER SERVICE PHOENIX AZ
100 PM MST SUN FEB 26 2017

NOTE: FAIR INDICATES FEW OR NO CLOUDS BELOW 12,000 FEET WITH NO
SIGNIFICANT WEATHER AND/OR OBSTRUCTIONS TO VISIBILITY.

AZZ001>003-036-262100-
NORTHWEST ARIZONA

CITY           SKY/WX    TMP DP  RH WIND       PRES   REMARKS
BULLHEAD CITY  SUNNY     61  30  31 W3        29.92F
KINGMAN        SUNNY     53  15  22 W15       29.90F
$$

AZZ004>008-015-016-018-262100-
NORTH CENTRAL ARIZONA

CITY           SKY/WX    TMP DP  RH WIND       PRES   REMARKS
GRAND CANYON   CLOUDY    38  20  48 S8        29.89F WCI  32
WILLIAMS       PTSUNNY   37  21  52 S10       29.90F WCI  30
PRESCOTT       PTSUNNY   46  25  43 CALM      29.92F
FLAGSTAFF      PTSUNNY   34  22  61 SW16G23   29.90F WCI  24
PAYSON         CLOUDY    46  18  31 W7G16     29.96F
PAGE           SUNNY     47  14  26 N8        29.89F
$$

AZZ009>014-017-262100-
NORTHEAST ARIZONA

CITY           SKY/WX    TMP DP  RH WIND       PRES   REMARKS
WINSLOW        CLOUDY    48  23  37 S22G30    29.94F
SAINT JOHNS    PTSUNNY   47  17  30 W15G25    29.91F
WINDOW ROCK    CLOUDY    37  22  54 SW8       29.93F WCI  31
SHOW LOW       PTSUNNY   43  10  26 SW13      29.94F
$$

AZZ023-262100-
GREATER PHOENIX AREA

CITY           SKY/WX    TMP DP  RH WIND       PRES   REMARKS
PHOENIX        PTSUNNY   64  26  23 SW7       29.91F
BUCKEYE        SUNNY     63  27  25 S5        29.92F
GLENDALE       PTSUNNY   64  32  29 S9        29.93F
LUKE AFB       SUNNY     65  27  23 S9        29.89F
DEER VALLEY    MOSUNNY   62  26  25 SW9G20    29.90F
SCOTTSDALE     CLOUDY    62  24  23 SW8       29.93F
MESA-FALCON    PTSUNNY  N/A N/A N/A W12       29.90F
MESA-GATEWAY   PTSUNNY   64  25  22 SW9       29.93F
CHANDLER       SUNNY     66  23  19 SW12      29.92F
$$

AZZ027-028-262100-
SOUTHWEST MARICOPA COUNTY AND PINAL COUNTY

CITY           SKY/WX    TMP DP  RH WIND       PRES   REMARKS
CASA GRANDE    NOT AVBL
$$

AZZ503-504-507>509-262100-
SOUTHEAST ARIZONA

CITY           SKY/WX    TMP DP  RH WIND       PRES   REMARKS
TUCSON         CLOUDY    64  10  12 W6        29.94F
DAVIS-MONTHAN  MOSUNNY   63  15  15 VRB5      29.93F
RYAN FIELD     PTSUNNY   64  14  14 SW5       29.94F
NOGALES        CLOUDY    60   8  12 SW12G23   29.98S
SIERRA VISTA   PTSUNNY   58   7  13 W24G31    29.96F
DOUGLAS        PTSUNNY   65   8  10 W20G26    29.93F
SAFFORD        CLOUDY    62  18  18 N14       29.92F
$$

AZZ020-021-025-026-031-262100-
SOUTHWEST ARIZONA

CITY           SKY/WX    TMP DP  RH WIND       PRES   REMARKS
YUMA           SUNNY     67  36  31 NW13G18   29.93F
$$

CAZ031-033-041-043-047-048-061-262100-
SOUTHERN CALIFORNIA

CITY           SKY/WX    TMP DP  RH WIND       PRES   REMARKS
DOWNTOWN L.A.  PTSUNNY   58  46  64 VRB6      30.00F
L.A. AIRPORT   PTSUNNY   53  48  83 E7        30.00F
SAN DIEGO      PTSUNNY   57  46  66 S17       30.04F
BURBANK        PTSUNNY   54  41  61 SE12G20   29.98F
ONTARIO        PTSUNNY   54  45  71 VRB3      29.99F
RIVERSIDE      PTSUNNY   54  47  77 VRB3      30.00F
PALM SPRINGS   MOSUNNY   65  44  46 VRB6      29.93F
EL CENTRO NAS  SUNNY     66  36  32 W10G22    29.95F
IMPERIAL       SUNNY     67  41  38 W10G21    29.93F
BLYTHE         SUNNY     64  33  31 CALM      29.92F
NEEDLES        SUNNY     61  30  31 CALM      29.92F
$$

NVZ020-UTZ003-262100-
SOUTHERN NEVADA-UTAH

CITY           SKY/WX    TMP DP  RH WIND       PRES   REMARKS
LAS VEGAS      MOSUNNY   55  18  23 CALM      29.88F
SALT LAKE CITY MOSUNNY   36  14  40 S20G26    29.87F WCI  25
$$

NMZ009-TXZ055-262100-
NEW MEXICO-WEST TEXAS

CITY           SKY/WX    TMP DP  RH WIND       PRES   REMARKS
ALBUQUERQUE    CLOUDY    43  19  38 N8        29.92F
EL PASO        PTSUNNY   67  11  11 W20G29    29.88F
$$


........................KEY........................
SKY/WX - SKY CONDITION/WEATHER
TMP    - TEMPERATURE IN FAHRENHEIT
DP     - DEW POINT IN FAHRENHEIT
RH     - RELATIVE HUMIDITY IN PERCENT
WIND   - DIRECTION AND SPEED IN MILES PER HOUR (MPH)
VRB    - VARIABLE WIND DIRECTION
PRES   - MEAN SEA LEVEL PRESSURE IN INCHES OF MERCURY
         F - FALLING PRESSURE   R - RISING PRESSURE
         S - STEADY PRESSURE
VSB    - VISIBILITY IN MILES
HX     - HEAT INDEX IN FAHRENHEIT
WCI    - WIND CHILL INDEX IN FAHRENHEIT
TC     - TEMPERATURE IN CELSIUS WHICH IS ALSO KNOWN AS
         TEMPERATURE IN CENTIGRADE
AFB    - AIR FORCE BASE
         LUKE AFB IS LUKE AIR FORCE BASE
         DAVIS-MONTHAN IS DAVIS-MONTHAN AIR FORCE BASE
NAS    - NAVAL AIR STATION
         EL CENTRO NAS IS EL CENTRO NAVAL AIR STATION
N/A    - NOT AVAILABLE





USA.gov is the U.S. government's official web portal to all federal, state and local government web resources and services.